Regional Weather Roundup
Issued by NWS Northern Indiana

Home | Current Version | Previous Version | Graphics & Text | Print | Product List | Glossary On
Versions: 1 2 3 4 5 6 7 8 9 10 11 12 13 14 15 16 17 18 19 20 21 22 23 24 25 26 27 28 29 30 31 32 33 34 35 36 37 38 39 40 41 42 43 44 45 46 47 48 49 50
000
ASUS43 KIWX 232000
RWRIWX

KIWX WEATHER ROUNDUP
NATIONAL WEATHER SERVICE NORTHERN INDIANA
400 PM EDT TUE AUG 23 2016

NOTE: "FAIR" INDICATES FEW OR NO CLOUDS BELOW 12,000 FEET WITH NO
SIGNIFICANT WEATHER AND/OR OBSTRUCTIONS TO VISIBILITY.

* THESE STATIONS ARE NOT UNDER NWS QUALITY CONTROL. THEY ALSO MAY NOT
  REPORT WEATHER SUCH AS PRECIPITATION OR FOG.

INZ001>027-232100-
NORTHERN INDIANA

CITY           SKY/WX    TMP DP  RH WIND       PRES   REMARKS
GARY*          MOSUNNY   72  59  64 S12       30.12F
KNOX*          MOSUNNY   79  32  18 SW9       30.20F
SOUTH BEND     PTSUNNY   79  60  52 S13       30.20F
ELKHART*       MOSUNNY   79  59  50 S9        30.21F
GOSHEN         MOSUNNY   78  57  48 S12       30.21F
MONTICELLO*    MOSUNNY   80  55  42 S8        30.20F
ANGOLA*        PTSUNNY   82  61  47 SW9       30.22F
FORT WAYNE     PTSUNNY   78  58  49 S8        30.23F
PERU/GRISSOM   SUNNY     81  60  48 S6        30.21S

$$
INZ028>050-232100-
CENTRAL INDIANA

CITY           SKY/WX    TMP DP  RH WIND       PRES   REMARKS
LAFAYETTE      MOSUNNY   79  61  53 S9        30.20F
KOKOMO*        PTSUNNY   81  59  47 S8        30.22F
MUNCIE*        PTSUNNY   80  60  50 VRB7      30.23F
INDIANAPOLIS   PTSUNNY   79  60  52 SE10      30.21F

$$
MIZ043>046-050>051-056>058-064>065-071>073-077>080-232100-
SOUTHWEST LOWER MICHIGAN

CITY           SKY/WX    TMP DP  RH WIND       PRES   REMARKS
BATTLE CREEK   MOSUNNY   75  59  57 SW10      30.22F
BENTON HARBOR  PTSUNNY   81  60  48 S7        30.18F
COLDWATER*     MOSUNNY   77  59  53 S9        30.22F
HILLSDALE*     PTSUNNY   77  59  53 S6        30.23F
HOLLAND        SUNNY     78  61  55 SW9       30.19F
GRAND RAPIDS   PTSUNNY   79  58  48 S10       30.19F
KALAMAZOO      MOSUNNY   78  57  48 SW8       30.21F
STURGIS*       PTSUNNY   78  58  50 S8G16     30.21F
THREE RIVERS*  PTSUNNY   78  60  52 S10       30.22S

$$
OHZ001>008-015>018-024>025-232100-
NORTHWEST OHIO

CITY           SKY/WX    TMP DP  RH WIND       PRES   REMARKS
DEFIANCE       MOSUNNY   81  57  43 SW9       30.23F
FINDLAY        MOSUNNY   80  57  45 SW7       30.24F
TOLEDO EXPRESS MOSUNNY   80  58  46 S8        30.22F
TOLEDO METCALF MOSUNNY   81  58  45 S10       30.24F
LIMA           MOSUNNY   79  61  53 SW7       30.25F

$$
AND FOR LAKE MICHIGAN COASTAL AND OPEN LAKE BUOY OBSERVATIONS

STATION/POSITION TEMP    WIND        PRES    VSBY  WAVE
                 AIR SEA DIR/SP/G                  HT/PER
                 (F)     (DEG/KT/KT) (MB)    (MI)  (FT/S)
CALUMET HARBOR    78     170/ 15/ 20 1021.2F
MICHIGAN CITY     76     190/ 13/ 17   N/A
BURNS HARBOR      78     190/ 14/ 20 1022.4F
SAINT JOSEPH      77     210/  7/ 13 1023.4F
SOUTH LAKE BUOY   74 75  170/ 17/ 19 1021.3          3/ 4
4 MI NW BRIDGMAN  76 76  200/ 10/ 12 1022.1F         2/ 3
MICHIGAN CITY     76 73  200/ 10/ 16   N/A           1/ 2

$$
&&




USA.gov is the U.S. government's official web portal to all federal, state and local government web resources and services.